User: anonymous   Login
Location: NJAA Observatory
(40.6819°N, 74.8979°W)
Time: 00:04:44
(UTC-05:00)
Language:

Iridium 84 - Orbit

View from above orbital plane
View from above orbital plane
View from above satellite
View from above satellite

Ground track
Ground track

The orbit data is extracted from the following two-line orbital elements,

1 25530U 98066D   14327.50259223  .00000461  00000-0  15757-3 0  8852
2 25530 086.3967 021.5582 0002237 109.2027 250.9411 14.34217482842747
Epoch (UTC): 23 November 2014 12:03:43
Eccentricity: 0.0002237
inclination: 86.3967°
perigee height: 776 km
apogee height: 779 km
right ascension of ascending node: 21.5582°
argument of perigee: 109.2027°
revolutions per day: 14.34217482
mean anomaly at epoch: 250.9411°
orbit number at epoch: 84274

The dashed part of the orbit path shows where the satellite is in the earth's shadow,  

DLR